| time (UTC) | temp F | wind direction | speed MPH | gust MPH | rain 1hr in | rain 24hr in | rain mn in | humidity % | barometer mb |
| 20260901010530 | 60 | 230 | 10.0 | 18.0 | 0.00 | 0.12 | 0.00 | 86 | 1013.9 |
| 20260901005529 | 60 | 242 | 8.0 | 18.0 | 0.00 | 0.12 | 0.00 | 86 | 1013.9 |
| 20260901004530 | 60 | 224 | 12.0 | 17.0 | 0.00 | 0.12 | 0.00 | 85 | 1013.9 |
| 20260901003530 | 60 | 238 | 11.0 | 15.0 | 0.00 | 0.12 | 0.00 | 84 | 1013.9 |
| 20260901000529 | 61 | 227 | 12.0 | 13.0 | 0.00 | 0.12 | 0.00 | 83 | 1013.8 |
| 20260831235530 | 61 | 225 | 13.0 | 14.0 | 0.00 | 0.12 | 0.00 | 83 | 1013.8 |
| 20260831234531 | 61 | 236 | 13.0 | 13.0 | 0.00 | 0.12 | 0.00 | 83 | 1013.8 |
| 20260831233529 | 61 | 231 | 10.0 | 15.0 | 0.00 | 0.12 | 0.00 | 83 | 1013.8 |
| 20260831232529 | 61 | 233 | 13.0 | 16.0 | 0.00 | 0.12 | 0.00 | 82 | 1013.8 |
| 20260831231532 | 61 | 235 | 11.0 | 14.0 | 0.00 | 0.12 | 0.00 | 82 | 1013.8 |
| 20260831230530 | 61 | 229 | 12.0 | 14.0 | 0.00 | 0.12 | 0.00 | 82 | 1013.5 |
| 20260831225529 | 61 | 232 | 13.0 | 16.0 | 0.00 | 0.12 | 0.00 | 82 | 1013.5 |
| 20260831224532 | 62 | 224 | 11.0 | 13.0 | 0.01 | 0.12 | 0.00 | 81 | 1013.5 |
| 20260831223528 | 62 | 213 | 9.0 | 16.0 | 0.01 | 0.12 | 0.00 | 81 | 1013.5 |
| 20260831221533 | 62 | 238 | 13.0 | 13.0 | 0.01 | 0.12 | 0.00 | 81 | 1013.5 |
| 20260831215529 | 62 | 230 | 10.0 | 17.0 | 0.02 | 0.12 | 0.00 | 81 | 1013.4 |
| 20260831214532 | 62 | 226 | 8.0 | 17.0 | 0.02 | 0.11 | 0.00 | 80 | 1013.4 |
| 20260831213530 | 62 | 234 | 11.0 | 14.0 | 0.02 | 0.11 | 0.00 | 80 | 1013.4 |
| 20260831212528 | 62 | 226 | 9.0 | 16.0 | 0.02 | 0.11 | 0.00 | 80 | 1013.4 |
| 20260831211532 | 62 | 212 | 10.0 | 17.0 | 0.03 | 0.11 | 0.00 | 79 | 1013.4 |
| 20260831204532 | 63 | 227 | 9.0 | 22.0 | 0.02 | 0.09 | 0.00 | 78 | 1012.3 |
| 20260831203528 | 63 | 220 | 11.0 | 19.0 | 0.02 | 0.09 | 0.00 | 78 | 1012.3 |
| 20260831202529 | 63 | 235 | 11.0 | 22.0 | 0.01 | 0.08 | 0.00 | 77 | 1012.3 |
| 20260831201530 | 63 | 232 | 10.0 | 34.0 | 0.01 | 0.08 | 0.00 | 76 | 1012.3 |
| 20260831200530 | 64 | 240 | 8.0 | 30.0 | 0.01 | 0.07 | 0.00 | 75 | 1012.0 |
| 20260831195528 | 64 | 236 | 8.0 | 34.0 | 0.01 | 0.07 | 0.00 | 74 | 1012.0 |
| 20260831192528 | 64 | 233 | 7.0 | 34.0 | 0.00 | 0.07 | 0.00 | 74 | 1012.0 |
| 20260831191531 | 64 | 257 | 8.0 | 39.0 | 0.00 | 0.07 | 0.00 | 75 | 1012.0 |
| 20260831190529 | 64 | 255 | 10.0 | 43.0 | 0.00 | 0.07 | 0.00 | 75 | 1011.5 |
| 20260831185530 | 65 | 256 | 9.0 | 40.0 | 0.00 | 0.07 | 0.00 | 75 | 1011.5 |
| 20260831182528 | 66 | 274 | 19.0 | 40.0 | 0.00 | 0.07 | 0.00 | 73 | 1011.5 |
| 20260831181532 | 67 | 259 | 15.0 | 39.0 | 0.00 | 0.07 | 0.00 | 72 | 1011.5 |
| 20260831180529 | 67 | 250 | 16.0 | 36.0 | 0.00 | 0.07 | 0.00 | 70 | 1010.5 |
| 20260831175530 | 67 | 251 | 17.0 | 43.0 | 0.00 | 0.07 | 0.00 | 69 | 1010.5 |
| 20260831173530 | 68 | 246 | 25.0 | 38.0 | 0.00 | 0.07 | 0.00 | 68 | 1010.5 |
| 20260831172529 | 69 | 253 | 24.0 | 33.0 | 0.00 | 0.07 | 0.00 | 66 | 1010.5 |
| 20260831171532 | 71 | 231 | 16.0 | 38.0 | 0.00 | 0.07 | 0.00 | 63 | 1010.5 |
| 20260831170528 | 72 | 229 | 15.0 | 42.0 | 0.00 | 0.07 | 0.00 | 61 | 1010.2 |
| 20260831164533 | 75 | 229 | 20.0 | 28.0 | 0.00 | 0.07 | 0.00 | 53 | 1010.2 |
| 20260831163528 | 75 | 230 | 18.0 | 27.0 | 0.00 | 0.07 | 0.00 | 53 | 1010.2 |
| 20260831161532 | 75 | 233 | 21.0 | 31.0 | 0.00 | 0.07 | 0.00 | 53 | 1010.2 |
| 20260831160531 | 75 | 237 | 21.0 | 32.0 | 0.00 | 0.07 | 0.00 | 53 | 1010.4 |
| 20260831155528 | 75 | 248 | 22.0 | 31.0 | 0.00 | 0.07 | 0.00 | 54 | 1010.4 |
| 20260831154533 | 76 | 248 | 19.0 | 26.0 | 0.00 | 0.07 | 0.00 | 55 | 1010.4 |
| 20260831153529 | 76 | 231 | 17.0 | 25.0 | 0.00 | 0.07 | 0.00 | 55 | 1010.4 |
| 20260831152529 | 76 | 243 | 16.0 | 30.0 | 0.00 | 0.07 | 0.00 | 55 | 1010.4 |
| 20260831151532 | 76 | 240 | 19.0 | 30.0 | 0.00 | 0.07 | 0.00 | 55 | 1010.4 |
| 20260831150531 | 76 | 224 | 15.0 | 30.0 | 0.00 | 0.07 | 0.00 | 55 | 1010.7 |
| 20260831145530 | 76 | 235 | 18.0 | 28.0 | 0.00 | 0.07 | 0.00 | 56 | 1010.7 |
| 20260831144533 | 76 | 250 | 15.0 | 29.0 | 0.00 | 0.07 | 0.00 | 56 | 1010.7 |
| 20260831143530 | 78 | 249 | 16.0 | 30.0 | 0.00 | 0.07 | 0.00 | 56 | 1010.7 |
| 20260831142531 | 78 | 241 | 16.0 | 32.0 | 0.00 | 0.07 | 0.00 | 56 | 1010.7 |
| 20260831141533 | 78 | 235 | 18.0 | 29.0 | 0.00 | 0.07 | 0.00 | 56 | 1010.7 |
| 20260831135529 | 78 | 239 | 19.0 | 31.0 | 0.00 | 0.07 | 0.00 | 56 | 1011.1 |
| 20260831134531 | 76 | 193 | 15.0 | 29.0 | 0.00 | 0.07 | 0.00 | 58 | 1011.1 |
| 20260831133528 | 76 | 206 | 15.0 | 28.0 | 0.00 | 0.07 | 0.00 | 58 | 1011.1 |
| 20260831132529 | 78 | 208 | 17.0 | 32.0 | 0.00 | 0.07 | 0.00 | 58 | 1011.1 |
| 20260831131534 | 77 | 203 | 15.0 | 31.0 | 0.00 | 0.07 | 0.00 | 60 | 1011.1 |
| 20260831130530 | 76 | 209 | 14.0 | 32.0 | 0.00 | 0.07 | 0.00 | 60 | 1011.2 |
| 20260831125529 | 78 | 208 | 14.0 | 26.0 | 0.00 | 0.07 | 0.00 | 57 | 1011.2 |
| 20260831124533 | 77 | 234 | 14.0 | 31.0 | 0.00 | 0.07 | 0.00 | 60 | 1011.2 |
| 20260831123529 | 76 | 234 | 12.0 | 29.0 | 0.00 | 0.07 | 0.00 | 61 | 1011.2 |
| 20260831122529 | 76 | 242 | 12.0 | 30.0 | 0.00 | 0.07 | 0.00 | 61 | 1011.2 |
| 20260831121532 | 77 | 237 | 13.0 | 26.0 | 0.00 | 0.07 | 0.00 | 62 | 1011.2 |
| 20260831120531 | 76 | 227 | 11.0 | 30.0 | 0.00 | 0.07 | 0.00 | 63 | 1011.4 |
| 20260831114532 | 76 | 217 | 11.0 | 29.0 | 0.00 | 0.07 | 0.00 | 64 | 1011.4 |
| 20260831113530 | 77 | 221 | 13.0 | 33.0 | 0.00 | 0.07 | 0.00 | 64 | 1011.4 |
| 20260831111532 | 75 | 218 | 11.0 | 16.0 | 0.00 | 0.07 | 0.00 | 68 | 1011.4 |
| 20260831110530 | 75 | 200 | 10.0 | 15.0 | 0.00 | 0.07 | 0.00 | 68 | 1011.7 |
| 20260831105529 | 75 | 208 | 10.0 | 15.0 | 0.01 | 0.07 | 0.00 | 70 | 1011.7 |
| 20260831103530 | 72 | 220 | 10.0 | 14.0 | 0.02 | 0.07 | 0.00 | 75 | 1011.7 |
| 20260831102530 | 71 | 221 | 10.0 | 13.0 | 0.03 | 0.07 | 0.00 | 76 | 1011.7 |
| 20260831100530 | 68 | 215 | 9.0 | 13.0 | 0.04 | 0.07 | 0.00 | 82 | 1012.0 |
| 20260831095530 | 67 | 227 | 10.0 | 15.0 | 0.04 | 0.06 | 0.00 | 83 | 1012.0 |
| 20260831094531 | 66 | 245 | 10.0 | 13.0 | 0.04 | 0.05 | 0.00 | 83 | 1012.0 |
| 20260831093530 | 66 | 241 | 9.0 | 13.0 | 0.03 | 0.05 | 0.00 | 84 | 1012.0 |
| 20260831091532 | 64 | 213 | 9.0 | 14.0 | 0.03 | 0.03 | 0.00 | 86 | 1012.0 |
| 20260831090531 | 63 | 213 | 9.0 | 17.0 | 0.03 | 0.03 | 0.00 | 86 | 1012.3 |
| 20260831085528 | 62 | 216 | 7.0 | 16.0 | 0.02 | 0.02 | 0.00 | 85 | 1012.3 |
| 20260831084533 | 62 | 222 | 10.0 | 16.0 | 0.02 | 0.02 | 0.00 | 85 | 1012.3 |
| 20260831083530 | 62 | 220 | 11.0 | 16.0 | 0.01 | 0.01 | 0.00 | 84 | 1012.3 |
| 20260831082529 | 62 | 222 | 10.0 | 15.0 | 0.01 | 0.01 | 0.00 | 84 | 1012.3 |
| 20260831081533 | 62 | 242 | 11.0 | 17.0 | 0.00 | 0.00 | 0.00 | 84 | 1012.3 |
| 20260831075528 | 62 | 235 | 11.0 | 12.0 | 0.00 | 0.00 | 0.00 | 82 | 1011.6 |
| 20260831074532 | 62 | 229 | 8.0 | 11.0 | 0.00 | 0.00 | 0.00 | 81 | 1011.6 |
| 20260831073529 | 62 | 221 | 9.0 | 11.0 | 0.00 | 0.00 | 0.00 | 80 | 1011.6 |
| 20260831072528 | 63 | 238 | 9.0 | 12.0 | 0.00 | 0.00 | 0.00 | 79 | 1011.6 |
| 20260831071533 | 63 | 175 | 7.0 | 12.0 | 0.00 | 0.00 | 0.00 | 78 | 1011.6 |
| 20260831070531 | 64 | 188 | 8.0 | 10.0 | 0.00 | 0.00 | 0.00 | 76 | 1011.5 |
| 20260831065529 | 64 | 178 | 10.0 | 12.0 | 0.00 | 0.00 | 0.00 | 75 | 1011.5 |
| 20260831063529 | 64 | 139 | 5.0 | 7.0 | 0.00 | 0.00 | 0.00 | 75 | 1011.5 |
| 20260831062530 | 64 | 135 | 4.0 | 6.0 | 0.00 | 0.00 | 0.00 | 75 | 1011.5 |
| 20260831061532 | 64 | 135 | 4.0 | 7.0 | 0.00 | 0.00 | 0.00 | 75 | 1011.5 |
| 20260831060529 | 64 | 131 | 4.0 | 5.0 | 0.00 | 0.00 | 0.00 | 75 | 1011.8 |
| 20260831055528 | 64 | 136 | 5.0 | 5.0 | 0.00 | 0.00 | 0.00 | 75 | 1011.8 |
| 20260831053529 | 64 | 67 | 4.0 | 5.0 | 0.00 | 0.00 | 0.00 | 75 | 1011.8 |
| 20260831052529 | 64 | 72 | 2.0 | 5.0 | 0.00 | 0.00 | 0.00 | 75 | 1011.8 |
| 20260831051531 | 64 | 128 | 1.0 | 5.0 | 0.00 | 0.00 | 0.00 | 75 | 1011.8 |
| 20260831050531 | 64 | 147 | 3.0 | 5.0 | 0.00 | 0.00 | 0.00 | 75 | 1012.0 |
| 20260831045529 | 63 | 139 | 2.0 | 5.0 | 0.00 | 0.00 | 0.00 | 75 | 1012.0 |
| 20260831044532 | 63 | 140 | 1.0 | 5.0 | 0.00 | 0.00 | 0.00 | 75 | 1012.0 |
| 20260831042530 | 63 | 143 | 2.0 | 6.0 | 0.00 | 0.00 | 0.00 | 75 | 1012.0 |
| 20260831040530 | 63 | 135 | 4.0 | 6.0 | 0.00 | 0.00 | 0.00 | 75 | 1012.1 |
| 20260831035530 | 63 | 144 | 4.0 | 7.0 | 0.00 | 0.00 | 0.00 | 75 | 1012.1 |
| 20260831034532 | 63 | 104 | 2.0 | 7.0 | 0.00 | 0.00 | 0.00 | 75 | 1012.1 |
| 20260831033528 | 63 | 106 | 2.0 | 6.0 | 0.00 | 0.01 | 0.00 | 75 | 1012.1 |
| 20260831032528 | 64 | 90 | 3.0 | 7.0 | 0.00 | 0.01 | 0.00 | 74 | 1012.1 |
| 20260831031531 | 64 | 120 | 3.0 | 7.0 | 0.00 | 0.01 | 0.00 | 74 | 1012.1 |
| 20260831030529 | 64 | 102 | 3.0 | 8.0 | 0.00 | 0.01 | 0.00 | 74 | 1012.4 |
| 20260831025528 | 64 | 104 | 4.0 | 7.0 | 0.00 | 0.01 | 0.00 | 74 | 1012.4 |
| 20260831024530 | 64 | 197 | 4.0 | 8.0 | 0.00 | 0.01 | 0.00 | 73 | 1012.4 |
| 20260831023532 | 64 | 188 | 4.0 | 7.0 | 0.00 | 0.01 | 0.00 | 73 | 1012.4 |
| 20260831022527 | 64 | 180 | 2.0 | 8.0 | 0.00 | 0.01 | 0.00 | 73 | 1012.4 |
| 20260831021531 | 64 | 176 | 4.0 | 7.0 | 0.00 | 0.01 | 0.00 | 73 | 1012.4 |
| 20260831020529 | 64 | 177 | 4.0 | 7.0 | 0.00 | 0.01 | 0.00 | 73 | 1013.0 |
| 20260831015529 | 65 | 168 | 5.0 | 7.0 | 0.00 | 0.01 | 0.00 | 72 | 1013.0 |
| 20260831013529 | 65 | 182 | 6.0 | 8.0 | 0.00 | 0.01 | 0.00 | 72 | 1013.0 |